カタログに戻る

WGS F4

USA 233

運用中軍事GEO
NORAD 38070·PAYLOAD·🇺🇸 United States

打ち上げ Jan 20, 2012 から Cape Canaveral Space Force Station

Loading…

TLE

最新Source: Space-Track

元期: Sep 14, 2026, 12:30 UTC

1 38070U 12003A   26257.52140201 -.00000223  00000-0  00000-0 0  9999
2 38070   0.0112 143.9299 0000203 200.9630 284.6968  1.00271357 45048

AllMySatでWGS F4をリアルタイム追跡

Download on the App Store